Location: Six Mile Lake
(44.9000°N, 79.7170°W)
Time: 04:58:42
(UTC-04:00)

AO-92 - Pass Details

Date: 08 July 2022
Orbit: 469 x 481 km, 97.4° (Epoch: 09 August)

Event Time Altitude Azimuth Distance (km) Brightness Sun altitude
Exits shadow 23:59:59 25° 237° (WSW) 1,013 ? -19.9°
Maximum altitude 00:00:52 28° 264° (W) 935 ? -20.0°
Drops below altitude 10° 00:04:00 10° 325° (NW) 1,671 ? -20.2°
Sets 00:06:18 0° 337° (NNW) 2,559 ? -20.3°
